Location: Shenandoah County Park
(38.9356°N, 78.4524°W)
Time: 14:43:50
(UTC-05:00)

Vanguard 2 Rocket - Pass Details

Date: 10 December 2023
Orbit: 555 x 3309 km, 32.9° (Epoch: 03 March)

Event Time Altitude Azimuth Distance (km) Brightness Sun altitude
Rises 18:18:20 0° 280° (W) 6,956 12.6 -16.3°
Reaches altitude 10° 18:22:56 10° 276° (W) 6,112 12.2 -17.2°
Maximum altitude 18:41:49 51° 209° (SSW) 3,730 10.1 -20.8°
Drops below altitude 10° 18:57:46 10° 139° (SE) 5,221 10.5 -23.8°
Sets 19:01:21 0° 134° (SE) 5,921 10.7 -24.5°
